map of KEF home
KEF - Airport
Location
City:  Reykjavík, Iceland
Name:Keflavík
ICAO:BIKF
IATA:KEF

Details
Type:Airport (Aerodrome, Airfield)
Latitude:63°59'06"N (63.985000)
Longitude:22°36'20"W (-22.605555)
Elevation:171 ft (52 m)
Variation:14.21°W (WMM2015 magnetic declination)
0.27° annual change
Runways:2
Longest:10056 × 197 ft (3065 × 60 m), paved

Time
Time Zone:UTC+0
Local Time:

Weather
METAR:BIKF 230100Z 11006KT 9999 BKN028 BKN040 10/07 Q1004
TAF:BIKF 221954Z 2221/2321 11010KT 9999 FEW020 BKN045 BKN075 TX12/2315Z TN08/2306Z
TEMPO 2221/2309 SHRA BKN015
BECMG 2315/2317 12020KT 5000 RA BR BKN008 OVC020

Related Locations
Nearby:
Farthest:NZTB: 11672 mi / 18784 km
Terra Nova Bay [Mario Zucchelli Station], AQ

Find:

   beyond  
but within

Other Information
Maps:
NOTAMs:
Links:
Sources:

  
flag of Iceland
flag of Reykjavík
  

Sectional Chart

Flight Planning
at skyvector.com

Satellite Image

Google Maps Satellite view

 

Copyright © 2004-2017 Karl L. Swartz. All rights reserved.
The Great Circle Mapper name and logo are trademarks of the Great Circle Mapper.
All other trademarks mentioned herein belong to their respective owners.
Please see credits for attibutions and further copyright information.

  Follow gcmap on Facebook Follow gcmap on Twitter Follow gcmap on Google+ GCmap on LinkedIn

hCard Microformat

Geo Microformat